Retour au catalogue

GLOBALSTAR M027

ActifCommunicationsMEO
NORAD 25884·PAYLOAD·🇺🇸 United States

Lancé Aug 17, 1999 depuis Cape Canaveral Space Force Station

Loading…

Prochains Passages (prochaines 24 heures)

TLE

FraisSource: Space-Track

Époque: Sep 14, 2026, 03:27 UTC

1 25884U 99043B   26257.14386196 -.00000091  00000-0 -10377-2 0  9994
2 25884  52.0192 167.1734 0021759   5.8887 354.2159 11.04374964191398

Suivez GLOBALSTAR M027 en temps réel avec AllMySat

Download on the App Store